FENGYUN 1C DEB

Satellite information

Favourite Embed

Satellite Type and Status

DEBRISIN ORBIT

Key statistics

Satellite FENGYUN 1C DEB at a glance.

Uptime

9498

Days in orbit

Revolutions

≈ 14.6

Per day

Orbit

SSO

Sun Synchronous Orbit

Inclination

98.6

Latest

Satellite identification and parameters

Extended collection of information and parameters for FENGYUN 1C DEB.

Object identification

Identified? True

Debris? True

Object name: FENGYUN 1C DEB

International designator: 1999-025CTP

Object number (NORAD): 32169

Object ID (CCSDS): 32169

Country: PEOPLES REPUBLIC OF CHINA (PRC)

Current information (Y/N): Y

RCS size: SMALL

Orbital parameters

Period: 98.774 minutes

Inclination: 98.5652 deg

SMA: 7078.194 km

Apoapsis: 730.996 km

Periapsis: 669.122 km

RAAN: 311.7643 deg

Eccentricy: 0.0043707

Argument of periapsis: 71.8211 deg

Mean anomaly: 288.7738 deg

Mean motion: 14.57870915 rev/day

Mean motion (dot): 0.00017018 rev/day2

B* drag term: 0.0036688 1/REarth

Two-line elements (TLE)

Creation date: May 11, 2025, 2:40 a.m.

Reference frame: TEME

Reference center: EARTH

Epoch: May 10, 2025, 5:40 p.m. UTC

TLE line 0: 0 FENGYUN 1C DEB

TLE line 1: 1 32169U 99025CTP 25130.73617193 .00017018 00000-0 36688-2 0 9994

TLE line 2: 2 32169 98.5652 311.7643 0043707 71.8211 288.7738 14.57870915934639

Live tracking on map

Real-time ground track for satellite FENGYUN 1C DEB.

In-orbit conjunctions

A list of the most updated potential collisions computed for object FENGYUN 1C DEB.

Target Orbit TCA Probability of collision Miss distance Type
CZ-2D DEB SSO 2025-01-04 11:04:59 0.0001564549 62.0 (m) DEBRIS
CZ-6A DEB LEO 2024-12-27 13:04:10 0.0001398087 274.0 (m) DEBRIS

Associated space launch

Chinese polar orbiting meteorological satellite

FENGYUN 1C DEB was lifted into orbit during the mission ‘Long March 4B | Feng Yun 1C’, on board a Long March 4B space rocket.

The launch took place on May 10, 1999, 1:33 a.m. from Launch Complex 7.

For more information about the launch, click the button.

Launch to space Long March 4B | Feng Yun 1C
Long March 4B | Feng Yun 1C

Agency: N/A

Status: Launch Successful

Launch date: May 10, 1999, 1:33 a.m. UTC

Rocket: Long March 4B

Launch pad: Launch Complex 7

Location: Taiyuan Satellite Launch Center, People's Republic of China

...

Latest news about this satellite

There are no fresh news available about this satellite. Check back as we update our databases every day.


Newsletter sign-up

Weekly statistics, charts and insights to help you stay on top of the space industry.